Wind_Speed
18 18 17 17 17 16 16 15 15 14 13 13 13 13 13 13 12 11 11 10 10 10 9 8 8 7 7 7 6 6 6 5 5 5 5 5 4 4 4 3 3 3 2
20 19 19 18 18 18 17 17 16 16 15 14 14 14 14 14 14 13 12 12 11 11 10 9 9 9 8 8 7 7 7 7 7 7 6 6 5 5 5 5 5 4 4
21 21 20 19 19 18 18 17 17 17 16 16 15 15 15 15 15 15 14 13 12 12 12 11 10 10 9 9 9 8 8 8 8 8 7 7 7 6 6 6 6 5 5
22 22 21 21 20 19 19 18 18 18 17 17 17 17 17 16 15 15 15 14 14 13 13 12 11 11 10 10 10 10 10 9 9 9 9 8 8 8 7 7 7 7 6
23 23 22 22 21 21 20 20 19 19 18 18 18 18 18 17 16 15 15 15 15 14 14 13 12 12 11 11 11 11 10 10 10 10 10 9 9 8 8 8 8 8 8
25 24 24 24 23 22 21 21 20 21 20 19 19 19 19 19 18 17 17 17 16 16 15 15 13 13 13 12 12 12 11 11 11 11 11 10 10 9 9 9 9 9 9
26 26 26 26 25 24 23 23 22 22 22 21 21 20 21 20 20 19 19 19 18 17 17 16 16 14 14 14 14 13 13 12 12 12 12 11 11 11 11 11 10 10 10
28 28 27 27 26 26 25 25 25 24 24 23 22 21 22 22 22 21 20 20 20 19 18 18 17 17 15 15 15 14 14 14 14 13 13 12 12 12 12 12 11 11 11
29 29 28 29 28 28 27 26 26 26 25 24 24 23 23 23 23 22 22 21 21 21 20 19 18 17 17 16 16 16 15 15 15 15 14 14 13 13 13 13 13 13 12
30 30 29 30 30 29 29 28 28 27 27 26 26 25 25 25 24 24 24 23 22 22 22 21 20 19 18 18 18 18 17 17 17 17 16 16 15 15 15 15 14 14 14
31 31 31 31 31 31 30 30 29 28 28 28 28 27 26 27 26 26 25 24 24 23 23 23 23 22 21 20 19 19 19 19 18 18 18 18 17 17 17 16 16 16 16
32 33 32 32 32 32 32 32 31 30 30 30 29 28 28 28 28 27 27 26 26 25 24 24 24 23 23 22 21 21 20 21 20 20 20 19 18 18 18 18 18 18 18
34 34 34 34 34 34 34 34 33 33 32 31 31 30 30 29 30 29 28 28 27 26 26 25 25 26 25 24 23 22 21 21 21 21 21 21 20 20 19 19 20 20 20
35 35 35 36 36 35 35 35 35 35 35 34 33 32 31 30 30 31 30 30 29 28 28 28 27 27 26 26 25 23 23 23 23 23 23 23 22 22 21 21 22 21 21
36 36 36 36 37 37 36 36 36 36 37 36 35 34 34 33 32 32 32 32 31 31 30 29 29 29 28 27 27 26 25 25 24 25 25 24 24 24 24 24 24 23 23
38 38 38 38 39 39 38 38 38 38 38 37 37 36 35 35 34 34 34 34 33 32 31 31 30 30 30 29 28 27 27 27 27 27 27 27 26 26 26 26 26 26 25
39 39 39 40 40 40 40 39 39 39 39 39 38 37 37 36 35 35 35 35 35 34 33 32 31 31 30 30 30 30 29 29 29 29 29 29 28 27 28 28 28 28 27
39 39 40 41 41 42 41 40 40 40 40 40 39 39 38 37 37 36 36 36 36 36 34 33 33 32 32 32 32 32 32 31 31 30 30 30 30 30 30 30 30 30 29
40 40 41 41 42 42 42 41 41 41 41 41 41 40 39 38 38 38 37 37 37 36 35 35 34 34 34 34 33 33 34 33 33 33 32 32 32 32 32 32 32 32 31
40 40 41 41 42 42 42 42 42 41 42 42 42 42 42 40 40 39 38 38 38 37 36 36 35 35 36 36 35 35 35 34 34 34 34 33 33 34 34 33 33 33 33
41 41 41 42 42 42 42 42 42 42 42 42 42 42 43 42 42 41 40 40 39 39 38 38 38 38 38 38 37 37 36 36 36 36 36 36 35 35 35 35 35 35 35
41 41 42 42 42 43 43 42 42 43 43 43 43 43 43 44 43 42 42 41 41 41 41 40 40 40 40 39 39 39 38 38 38 38 38 38 38 37 37 37 37 37 36
40 41 42 42 42 43 43 43 43 43 44 44 44 44 44 44 44 44 44 43 43 43 43 43 42 42 42 41 39 40 40 40 39 39 39 39 39 39 38 39 38 38 38
41 41 42 42 43 43 44 44 43 43 44 45 45 45 44 44 45 46 45 45 45 45 45 45 44 44 43 43 42 42 42 41 41 40 40 40 41 41 40 39 39 38 39
41 42 43 43 44 44 45 45 44 44 45 45 45 45 45 45 46 47 47 47 48 47 46 46 46 46 45 45 45 44 44 43 43 43 41 41 41 41 41 41 41 40 40
42 43 43 44 44 44 44 44 44 44 45 46 46 46 46 46 47 47 48 48 48 49 48 48 47 47 47 47 46 45 45 44 43 43 42 43 43 43 42 42 42 42 42
Wind_Direction
234 232 230 229 228 228 227 226 227 226 226 227 227 225 223 224 224 223 221 221 222 223 221 222 224 229 231 232 236 237 243 245 245 250 251 250 248 248 251 255 255 255 249
236 234 232 231 231 230 229 228 228 229 229 229 229 229 229 228 227 227 227 226 226 226 226 227 231 234 234 234 237 240 244 246 248 249 249 251 252 249 246 252 255 251 252
237 235 233 232 232 231 230 230 230 231 232 231 230 231 232 232 231 231 231 231 231 229 229 232 232 235 236 237 239 241 245 246 247 247 249 249 251 248 247 248 250 249 254
237 235 234 233 233 233 232 231 232 232 234 234 231 232 233 234 234 233 232 232 232 233 233 232 231 234 238 241 241 242 244 245 244 245 247 249 251 247 248 249 251 254 255
236 236 235 234 234 235 234 232 232 232 234 235 234 234 235 235 235 234 232 232 231 232 233 234 233 236 240 242 242 241 241 242 242 242 245 247 248 245 247 251 252 253 254
237 236 237 236 236 236 235 234 233 233 235 236 237 237 238 237 237 237 235 234 232 232 233 236 237 237 237 239 241 242 240 240 241 242 243 244 247 248 249 250 251 254 254
239 238 238 238 237 237 236 236 235 235 234 236 238 238 239 239 238 239 237 236 236 236 237 238 238 241 240 239 241 242 242 240 239 239 241 244 246 248 249 249 251 253 254
240 240 239 239 239 238 238 237 237 237 235 236 237 238 240 240 239 238 237 236 237 238 239 241 242 242 242 240 239 241 241 240 240 237 240 243 245 247 248 247 248 251 253
240 240 240 240 240 240 239 239 238 239 237 236 237 238 238 238 238 238 237 239 239 239 240 240 242 243 243 242 241 240 241 241 241 239 240 242 245 247 248 247 247 248 251
240 240 240 240 241 241 240 239 239 239 239 238 238 238 239 239 238 238 238 240 242 240 240 241 241 243 244 243 242 242 242 242 242 242 243 244 247 248 248 249 249 250 252
241 240 240 241 241 241 241 241 240 240 240 240 239 239 239 240 239 238 238 241 242 242 242 242 242 244 246 245 244 242 243 244 243 243 245 248 250 250 251 252 252 252 254
242 241 241 242 242 242 242 242 242 242 241 241 241 240 240 240 239 239 239 241 241 242 242 243 242 243 245 245 246 246 245 244 244 245 247 249 252 252 253 254 253 254 256
243 242 241 241 242 243 242 242 242 242 241 241 241 242 242 241 240 239 240 241 243 243 243 242 243 244 244 245 246 247 248 247 246 247 249 250 251 253 254 255 255 256 257
243 243 242 242 242 242 242 242 242 243 242 241 242 242 242 242 242 240 241 243 244 244 244 243 244 244 245 245 246 247 249 250 249 249 250 251 252 253 254 255 254 257 258
244 244 243 242 242 243 243 243 243 243 243 243 243 243 243 244 244 244 244 245 245 245 245 245 243 244 245 245 246 248 248 250 250 251 251 252 252 253 255 255 254 256 258
245 245 244 243 243 243 243 243 242 243 244 243 243 243 244 244 245 244 243 244 244 244 244 245 245 244 245 246 247 248 249 250 251 252 252 253 253 254 255 255 255 256 257
246 245 245 244 244 244 244 243 242 243 243 243 242 242 243 244 244 245 244 244 243 244 245 246 246 247 247 247 249 251 252 253 253 252 252 253 254 254 253 254 255 256 257
246 246 246 245 245 244 244 243 242 242 243 243 243 242 242 243 243 244 243 245 244 244 245 246 247 249 249 250 251 252 253 254 255 254 253 253 254 253 253 255 256 257 257
246 246 246 246 245 244 244 243 242 241 242 243 243 242 242 243 243 244 244 245 246 246 246 247 248 249 251 251 251 252 252 254 254 255 255 254 253 254 255 255 256 257 258
245 246 245 245 244 244 243 243 242 241 242 242 242 243 243 243 243 244 244 245 245 246 247 248 248 250 251 252 252 252 253 253 254 254 254 254 255 255 256 256 257 258 258
245 245 245 245 244 243 243 243 241 241 242 241 241 243 243 243 244 244 244 245 246 247 248 249 249 250 250 250 251 251 252 253 253 254 254 255 256 255 256 257 258 258 258
245 245 245 245 245 244 244 243 242 242 242 242 241 242 243 243 243 243 244 245 246 247 248 249 249 250 249 249 250 250 251 252 253 254 255 256 257 257 257 258 260 261 261
246 245 245 245 245 245 244 244 244 243 242 241 241 242 242 242 243 243 244 245 246 247 247 249 249 250 250 250 252 253 252 252 252 254 255 257 258 260 261 261 261 262 263
246 245 244 244 244 245 245 244 245 243 242 242 242 241 241 242 244 244 244 245 246 247 248 249 249 250 250 251 252 254 255 256 255 257 258 258 259 260 261 262 261 262 263
247 245 245 244 244 245 245 244 245 243 242 242 241 241 243 245 245 245 246 246 246 247 249 249 250 250 251 251 252 254 255 256 256 257 258 258 259 260 261 262 262 263 263
248 247 246 247 246 246 245 245 245 244 243 241 241 242 245 246 246 246 247 247 247 248 249 249 250 251 251 251 252 253 255 255 255 257 257 258 259 260 260 261 262 263 264
Height
5832 5833 5834 5835 5837 5838 5839 5840 5841 5843 5843 5844 5845 5846 5847 5848 5849 5850 5851 5852 5852 5853 5853 5854 5854 5855 5855 5856 5856 5856 5857 5857 5858 5858 5857 5858 5858 5858 5858 5858 5858 5858 5858
5829 5830 5831 5832 5834 5835 5836 5837 5839 5840 5841 5842 5843 5844 5845 5846 5847 5848 5849 5849 5850 5851 5852 5852 5852 5853 5853 5854 5855 5855 5855 5856 5856 5856 5856 5857 5857 5857 5857 5857 5857 5857 5857
5825 5826 5827 5829 5830 5832 5833 5834 5836 5837 5838 5839 5840 5841 5842 5843 5844 5845 5846 5847 5848 5849 5850 5850 5851 5851 5852 5853 5853 5854 5854 5854 5855 5855 5855 5855 5855 5855 5856 5856 5856 5856 5857
5820 5822 5824 5825 5827 5828 5829 5831 5832 5834 5835 5836 5837 5839 5839 5841 5842 5842 5844 5845 5845 5846 5847 5848 5848 5849 5850 5851 5851 5852 5852 5853 5853 5853 5854 5854 5854 5854 5854 5855 5855 5855 5855
5816 5818 5819 5821 5823 5824 5826 5827 5829 5830 5832 5833 5834 5835 5836 5837 5839 5840 5841 5842 5843 5844 5845 5846 5846 5847 5848 5849 5849 5850 5850 5851 5851 5851 5852 5852 5852 5852 5853 5853 5853 5853 5854
5811 5813 5815 5816 5818 5820 5821 5823 5825 5826 5828 5829 5830 5832 5833 5834 5835 5836 5837 5838 5840 5841 5842 5843 5844 5845 5846 5846 5847 5847 5848 5848 5849 5849 5850 5850 5850 5850 5851 5851 5852 5852 5852
5806 5808 5810 5812 5813 5815 5817 5819 5820 5822 5824 5825 5827 5828 5829 5830 5832 5833 5834 5835 5836 5837 5839 5840 5841 5842 5843 5844 5844 5845 5845 5846 5847 5847 5848 5848 5848 5848 5849 5849 5850 5850 5850
5801 5803 5805 5806 5808 5810 5812 5814 5816 5817 5819 5821 5822 5823 5825 5826 5827 5829 5830 5831 5832 5834 5835 5837 5838 5839 5840 5841 5841 5842 5843 5843 5844 5844 5845 5845 5846 5846 5846 5847 5847 5848 5848
5795 5797 5799 5801 5803 5805 5807 5808 5810 5812 5814 5816 5817 5819 5820 5821 5823 5824 5826 5827 5828 5830 5832 5833 5834 5835 5836 5837 5838 5839 5840 5840 5841 5842 5842 5843 5843 5844 5844 5844 5845 5845 5846
5789 5791 5793 5795 5797 5799 5801 5803 5805 5807 5809 5810 5812 5814 5815 5816 5818 5820 5821 5823 5824 5825 5827 5829 5830 5831 5832 5833 5834 5836 5836 5837 5838 5838 5839 5840 5840 5841 5841 5842 5842 5843 5843
5782 5784 5786 5789 5791 5793 5795 5797 5799 5801 5803 5805 5807 5808 5810 5811 5813 5815 5817 5818 5820 5821 5822 5824 5826 5827 5828 5830 5831 5832 5832 5833 5834 5835 5836 5836 5837 5837 5838 5838 5839 5840 5840
5775 5777 5779 5782 5784 5786 5788 5791 5793 5795 5797 5799 5801 5803 5804 5806 5807 5809 5811 5813 5815 5816 5817 5819 5821 5822 5824 5825 5826 5827 5828 5829 5830 5831 5832 5832 5833 5834 5834 5835 5835 5836 5837
5767 5770 5772 5774 5776 5779 5781 5783 5786 5788 5790 5792 5795 5797 5798 5800 5802 5804 5806 5808 5809 5811 5812 5814 5816 5817 5819 5820 5822 5823 5824 5825 5826 5827 5827 5828 5829 5830 5830 5831 5831 5832 5833
5760 5762 5764 5766 5768 5771 5773 5776 5778 5780 5783 5785 5788 5790 5792 5794 5796 5798 5800 5802 5804 5805 5807 5808 5810 5812 5814 5815 5817 5818 5819 5820 5821 5822 5823 5824 5825 5825 5826 5826 5827 5828 5828
5751 5754 5756 5757 5760 5762 5765 5768 5770 5773 5775 5778 5780 5783 5785 5787 5789 5792 5794 5795 5797 5799 5801 5803 5804 5806 5808 5809 5811 5812 5814 5815 5816 5817 5818 5819 5820 5820 5821 5821 5822 5823 5823
5743 5745 5747 5749 5751 5753 5756 5759 5762 5764 5767 5770 5772 5775 5778 5780 5782 5784 5787 5789 5791 5793 5795 5797 5798 5800 5802 5803 5805 5806 5808 5809 5810 5811 5812 5813 5814 5815 5815 5816 5817 5817 5818
5733 5735 5738 5740 5741 5744 5746 5749 5752 5756 5758 5761 5764 5767 5770 5772 5775 5777 5779 5781 5784 5786 5788 5790 5792 5793 5795 5797 5798 5800 5801 5803 5804 5805 5806 5807 5808 5809 5809 5810 5811 5811 5812
5723 5725 5728 5729 5732 5734 5737 5740 5743 5746 5749 5752 5755 5758 5761 5764 5767 5770 5772 5774 5776 5779 5781 5783 5785 5787 5788 5790 5792 5793 5794 5796 5797 5798 5799 5800 5801 5802 5803 5804 5804 5805 5806
5713 5715 5717 5719 5722 5724 5727 5730 5734 5737 5740 5743 5746 5749 5753 5756 5759 5762 5764 5767 5769 5771 5773 5776 5778 5779 5781 5782 5784 5786 5787 5788 5790 5791 5792 5793 5794 5795 5796 5797 5798 5799 5800
5703 5705 5707 5709 5712 5714 5717 5720 5724 5727 5730 5734 5737 5740 5744 5747 5750 5753 5756 5759 5761 5764 5766 5768 5770 5771 5773 5774 5776 5778 5779 5780 5782 5783 5784 5785 5786 5788 5789 5789 5791 5791 5792
5693 5695 5698 5700 5702 5705 5708 5710 5714 5717 5720 5724 5727 5731 5734 5737 5740 5744 5747 5750 5753 5755 5757 5759 5761 5763 5765 5766 5768 5769 5771 5772 5774 5775 5776 5778 5779 5780 5781 5782 5783 5784 5784
5683 5686 5688 5690 5693 5695 5698 5701 5704 5707 5710 5714 5717 5721 5724 5727 5731 5734 5737 5740 5743 5746 5748 5750 5752 5754 5756 5758 5759 5760 5762 5764 5765 5767 5768 5769 5770 5771 5772 5773 5774 5775 5776
5673 5676 5678 5681 5683 5685 5688 5691 5694 5697 5700 5703 5707 5711 5714 5717 5720 5724 5727 5730 5733 5735 5738 5741 5743 5745 5747 5749 5750 5752 5753 5755 5757 5758 5759 5761 5762 5763 5764 5765 5765 5767 5767
5663 5665 5668 5670 5673 5675 5678 5680 5683 5686 5690 5693 5696 5700 5703 5706 5709 5713 5716 5719 5722 5725 5728 5730 5733 5735 5737 5739 5740 5742 5744 5746 5748 5749 5751 5751 5752 5753 5754 5755 5756 5757 5757
5652 5655 5657 5660 5662 5665 5667 5670 5673 5676 5679 5682 5685 5688 5692 5695 5698 5702 5705 5708 5711 5714 5717 5719 5722 5724 5727 5729 5730 5732 5734 5735 5737 5739 5741 5742 5743 5744 5744 5745 5746 5747 5747
5642 5644 5647 5649 5651 5654 5657 5659 5662 5665 5668 5671 5675 5678 5681 5684 5687 5690 5693 5696 5699 5702 5705 5708 5710 5713 5715 5718 5720 5721 5723 5725 5727 5728 5730 5731 5732 5734 5734 5735 5736 5737 5737